"Period start","avg(HW err(1)/warn(2) (#))","avg(Visibility (m))","avg(Weather code (#))","avg(Precip intensity (mm/h))","min(HW err(1)/warn(2) (#))","max(HW err(1)/warn(2) (#))","std(HW err(1)/warn(2) (#))","med(HW err(1)/warn(2) (#))","min(Visibility (m))","max(Visibility (m))","std(Visibility (m))","med(Visibility (m))","min(Weather code (#))","max(Weather code (#))","std(Weather code (#))","med(Weather code (#))","min(Precip intensity (mm/h))","max(Precip intensity (mm/h))","std(Precip intensity (mm/h))","med(Precip intensity (mm/h))"
2016-09-21 00:00:00,2,42292,0,0.00,2,2,0,2,30422,50000,6727,43662,0,0,0,0,0.00,0.00,0.00,0.00
2016-09-21 00:10:00,2,38493,0,0.00,2,2,0,2,26482,50000,9194,39608,0,0,0,0,0.00,0.00,0.00,0.00
2016-09-21 00:20:00,2,38476,0,0.00,2,2,0,2,25333,50000,7665,36984,0,0,0,0,0.00,0.00,0.00,0.00
2016-09-21 00:30:00,2,47382,0,0.00,2,2,0,2,38757,50000,3506,49064,0,0,0,0,0.00,0.00,0.00,0.00
2016-09-21 00:40:00,2,45399,0,0.00,2,2,0,2,34490,50000,5491,46718,0,0,0,0,0.00,0.00,0.00,0.00
2016-09-21 00:50:00,2,42872,0,0.00,2,2,0,2,30087,50000,8164,47596,0,0,0,0,0.00,0.00,0.00,0.00
2016-09-21 01:00:00,2,37878,0,0.00,2,2,0,2,25900,50000,9034,36974,0,0,0,0,0.00,0.00,0.00,0.00
2016-09-21 01:10:00,2,43720,0,0.00,2,2,0,2,33515,50000,7041,48117,0,0,0,0,0.00,0.00,0.00,0.00
2016-09-21 01:20:00,2,38311,0,0.00,2,2,0,2,19210,47448,8758,41250,0,0,0,0,0.00,0.00,0.00,0.00
2016-09-21 01:30:00,2,46060,0,0.00,2,2,0,2,31889,50000,5474,48600,0,0,0,0,0.00,0.00,0.00,0.00
2016-09-21 01:40:00,2,44900,0,0.00,2,2,0,2,37657,50000,5240,47146,0,0,0,0,0.00,0.00,0.00,0.00
2016-09-21 01:50:00,2,46019,0,0.00,2,2,0,2,36106,50000,5470,49354,0,0,0,0,0.00,0.00,0.00,0.00
2016-09-21 02:00:00,2,39011,0,0.00,2,2,0,2,31033,46131,5711,41134,0,0,0,0,0.00,0.00,0.00,0.00
2016-09-21 02:10:00,2,37433,0,0.00,2,2,0,2,23284,50000,10233,37560,0,0,0,0,0.00,0.00,0.00,0.00
2016-09-21 02:20:00,2,42473,0,0.00,2,2,0,2,35210,50000,4875,43379,0,0,0,0,0.00,0.00,0.00,0.00
2016-09-21 02:30:00,2,41936,0,0.00,2,2,0,2,25140,50000,9214,45940,0,0,0,0,0.00,0.00,0.00,0.00
2016-09-21 02:40:00,2,39292,0,0.00,2,2,0,2,28356,50000,7422,39636,0,0,0,0,0.00,0.00,0.00,0.00
2016-09-21 02:50:00,2,34780,0,0.00,2,2,0,2,19404,50000,8101,35042,0,0,0,0,0.00,0.00,0.00,0.00
2016-09-21 03:00:00,2,36754,0,0.00,2,2,0,2,21898,50000,10279,34314,0,0,0,0,0.00,0.00,0.00,0.00
2016-09-21 03:10:00,2,44610,0,0.00,2,2,0,2,28474,50000,7637,47972,0,0,0,0,0.00,0.00,0.00,0.00
2016-09-21 03:20:00,2,48008,0,0.00,2,2,0,2,41164,50000,3129,49954,0,0,0,0,0.00,0.00,0.00,0.00
2016-09-21 03:30:00,2,49390,0,0.00,2,2,0,2,45101,50000,1474,50000,0,0,0,0,0.00,0.00,0.00,0.00
2016-09-21 03:40:00,2,46274,0,0.00,2,2,0,2,36887,50000,4014,46778,0,0,0,0,0.00,0.00,0.00,0.00
2016-09-21 03:50:00,2,46615,0,0.00,2,2,0,2,30826,50000,5545,48422,0,0,0,0,0.00,0.00,0.00,0.00
2016-09-21 04:00:00,2,45900,0,0.00,2,2,0,2,34119,50000,5100,48256,0,0,0,0,0.00,0.00,0.00,0.00
2016-09-21 04:10:00,2,46517,0,0.00,2,2,0,2,39012,50000,4019,48251,0,0,0,0,0.00,0.00,0.00,0.00
2016-09-21 04:20:00,2,46529,0,0.00,2,2,0,2,40872,50000,3097,46322,0,0,0,0,0.00,0.00,0.00,0.00
2016-09-21 04:30:00,2,46428,0,0.00,2,2,0,2,38226,50000,4222,49009,0,0,0,0,0.00,0.00,0.00,0.00
2016-09-21 04:40:00,2,47627,0,0.00,2,2,0,2,39243,50000,3805,50000,0,0,0,0,0.00,0.00,0.00,0.00
2016-09-21 04:50:00,2,44294,0,0.00,2,2,0,2,37431,50000,4566,46254,0,0,0,0,0.00,0.00,0.00,0.00
2016-09-21 05:00:00,2,47639,0,0.00,2,2,0,2,38755,50000,3812,49975,0,0,0,0,0.00,0.00,0.00,0.00
2016-09-21 05:10:00,2,48722,0,0.00,2,2,0,2,44023,50000,1932,49603,0,0,0,0,0.00,0.00,0.00,0.00
2016-09-21 05:20:00,2,49686,0,0.00,2,2,0,2,48180,50000,608,50000,0,0,0,0,0.00,0.00,0.00,0.00
2016-09-21 05:30:00,2,49844,0,0.00,2,2,0,2,48445,50000,466,50000,0,0,0,0,0.00,0.00,0.00,0.00
2016-09-21 05:40:00,2,50000,0,0.00,2,2,0,2,50000,50000,0,50000,0,0,0,0,0.00,0.00,0.00,0.00
2016-09-21 05:50:00,2,49890,0,0.00,2,2,0,2,49238,50000,239,50000,0,0,0,0,0.00,0.00,0.00,0.00
2016-09-21 06:00:00,2,49546,0,0.00,2,2,0,2,48241,50000,624,50000,0,0,0,0,0.00,0.00,0.00,0.00
2016-09-21 06:10:00,2,49546,0,0.00,2,2,0,2,46528,50000,1055,50000,0,0,0,0,0.00,0.00,0.00,0.00
2016-09-21 06:20:00,2,49770,0,0.00,2,2,0,2,47765,50000,669,50000,0,0,0,0,0.00,0.00,0.00,0.00
2016-09-21 06:30:00,2,48298,0,0.00,2,2,0,2,44354,50000,2099,49657,0,0,0,0,0.00,0.00,0.00,0.00
2016-09-21 06:40:00,2,49711,0,0.00,2,2,0,2,48123,50000,609,50000,0,0,0,0,0.00,0.00,0.00,0.00
2016-09-21 06:50:00,2,49821,0,0.00,2,2,0,2,48256,50000,522,50000,0,0,0,0,0.00,0.00,0.00,0.00
2016-09-21 07:00:00,2,50000,0,0.00,2,2,0,2,50000,50000,0,50000,0,0,0,0,0.00,0.00,0.00,0.00
2016-09-21 07:10:00,2,49780,0,0.00,2,2,0,2,48431,50000,488,50000,0,0,0,0,0.00,0.00,0.00,0.00
2016-09-21 07:20:00,2,49670,0,0.00,2,2,0,2,48046,50000,674,50000,0,0,0,0,0.00,0.00,0.00,0.00
2016-09-21 07:30:00,2,50000,0,0.00,2,2,0,2,50000,50000,0,50000,0,0,0,0,0.00,0.00,0.00,0.00
2016-09-21 07:40:00,2,50000,0,0.00,2,2,0,2,50000,50000,0,50000,0,0,0,0,0.00,0.00,0.00,0.00
2016-09-21 07:50:00,2,49944,0,0.00,2,2,0,2,49437,50000,169,50000,0,0,0,0,0.00,0.00,0.00,0.00
2016-09-21 08:00:00,2,49885,0,0.00,2,2,0,2,48854,50000,344,50000,0,0,0,0,0.00,0.00,0.00,0.00
2016-09-21 08:10:00,2,50000,0,0.00,2,2,0,2,50000,50000,0,50000,0,0,0,0,0.00,0.00,0.00,0.00
2016-09-21 08:20:00,2,50000,0,0.00,2,2,0,2,50000,50000,0,50000,0,0,0,0,0.00,0.00,0.00,0.00
2016-09-21 08:30:00,2,50000,0,0.00,2,2,0,2,50000,50000,0,50000,0,0,0,0,0.00,0.00,0.00,0.00
2016-09-21 08:40:00,2,50000,0,0.00,2,2,0,2,50000,50000,0,50000,0,0,0,0,0.00,0.00,0.00,0.00
2016-09-21 08:50:00,2,50000,0,0.00,2,2,0,2,50000,50000,0,50000,0,0,0,0,0.00,0.00,0.00,0.00
2016-09-21 09:00:00,2,50000,0,0.00,2,2,0,2,50000,50000,0,50000,0,0,0,0,0.00,0.00,0.00,0.00
2016-09-21 09:10:00,2,50000,0,0.00,2,2,0,2,50000,50000,0,50000,0,0,0,0,0.00,0.00,0.00,0.00
2016-09-21 09:20:00,2,50000,0,0.00,2,2,0,2,50000,50000,0,50000,0,0,0,0,0.00,0.00,0.00,0.00
2016-09-21 09:30:00,2,50000,0,0.00,2,2,0,2,50000,50000,0,50000,0,0,0,0,0.00,0.00,0.00,0.00
2016-09-21 09:40:00,2,50000,0,0.00,2,2,0,2,50000,50000,0,50000,0,0,0,0,0.00,0.00,0.00,0.00
2016-09-21 09:50:00,2,50000,0,0.00,2,2,0,2,50000,50000,0,50000,0,0,0,0,0.00,0.00,0.00,0.00
2016-09-21 10:00:00,2,50000,0,0.00,2,2,0,2,50000,50000,0,50000,0,0,0,0,0.00,0.00,0.00,0.00
2016-09-21 10:10:00,2,50000,0,0.00,2,2,0,2,50000,50000,0,50000,0,0,0,0,0.00,0.00,0.00,0.00
2016-09-21 10:20:00,2,50000,0,0.00,2,2,0,2,50000,50000,0,50000,0,0,0,0,0.00,0.00,0.00,0.00
2016-09-21 10:30:00,2,50000,0,0.00,2,2,0,2,50000,50000,0,50000,0,0,0,0,0.00,0.00,0.00,0.00
2016-09-21 10:40:00,2,50000,0,0.00,2,2,0,2,50000,50000,0,50000,0,0,0,0,0.00,0.00,0.00,0.00
2016-09-21 10:50:00,2,50000,0,0.00,2,2,0,2,50000,50000,0,50000,0,0,0,0,0.00,0.00,0.00,0.00
2016-09-21 11:00:00,2,50000,0,0.00,2,2,0,2,50000,50000,0,50000,0,0,0,0,0.00,0.00,0.00,0.00
2016-09-21 11:10:00,2,50000,0,0.00,2,2,0,2,50000,50000,0,50000,0,0,0,0,0.00,0.00,0.00,0.00
2016-09-21 11:20:00,2,50000,0,0.00,2,2,0,2,50000,50000,0,50000,0,0,0,0,0.00,0.00,0.00,0.00
2016-09-21 11:30:00,2,50000,0,0.00,2,2,0,2,50000,50000,0,50000,0,0,0,0,0.00,0.00,0.00,0.00
2016-09-21 11:40:00,2,50000,0,0.00,2,2,0,2,50000,50000,0,50000,0,0,0,0,0.00,0.00,0.00,0.00
2016-09-21 11:50:00,2,50000,0,0.00,2,2,0,2,50000,50000,0,50000,0,0,0,0,0.00,0.00,0.00,0.00
2016-09-21 12:00:00,2,50000,0,0.00,2,2,0,2,50000,50000,0,50000,0,0,0,0,0.00,0.00,0.00,0.00
2016-09-21 12:10:00,2,50000,0,0.00,2,2,0,2,50000,50000,0,50000,0,0,0,0,0.00,0.00,0.00,0.00
2016-09-21 12:20:00,2,50000,0,0.00,2,2,0,2,50000,50000,0,50000,0,0,0,0,0.00,0.00,0.00,0.00
2016-09-21 12:30:00,2,50000,0,0.00,2,2,0,2,50000,50000,0,50000,0,0,0,0,0.00,0.00,0.00,0.00
2016-09-21 12:40:00,2,50000,0,0.00,2,2,0,2,50000,50000,0,50000,0,0,0,0,0.00,0.00,0.00,0.00
2016-09-21 12:50:00,2,50000,0,0.00,2,2,0,2,50000,50000,0,50000,0,0,0,0,0.00,0.00,0.00,0.00
2016-09-21 13:00:00,2,50000,0,0.00,2,2,0,2,50000,50000,0,50000,0,0,0,0,0.00,0.00,0.00,0.00
2016-09-21 13:10:00,2,50000,0,0.00,2,2,0,2,50000,50000,0,50000,0,0,0,0,0.00,0.00,0.00,0.00
2016-09-21 13:20:00,2,50000,0,0.00,2,2,0,2,50000,50000,0,50000,0,0,0,0,0.00,0.00,0.00,0.00
2016-09-21 13:30:00,2,50000,0,0.00,2,2,0,2,50000,50000,0,50000,0,0,0,0,0.00,0.00,0.00,0.00
2016-09-21 13:40:00,2,50000,0,0.00,2,2,0,2,50000,50000,0,50000,0,0,0,0,0.00,0.00,0.00,0.00
2016-09-21 13:50:00,2,50000,0,0.00,2,2,0,2,50000,50000,0,50000,0,0,0,0,0.00,0.00,0.00,0.00
2016-09-21 14:00:00,2,50000,0,0.00,2,2,0,2,50000,50000,0,50000,0,0,0,0,0.00,0.00,0.00,0.00
2016-09-21 14:10:00,2,50000,0,0.00,2,2,0,2,50000,50000,0,50000,0,0,0,0,0.00,0.00,0.00,0.00
2016-09-21 14:20:00,2,50000,0,0.00,2,2,0,2,50000,50000,0,50000,0,0,0,0,0.00,0.00,0.00,0.00
2016-09-21 14:30:00,2,50000,0,0.00,2,2,0,2,50000,50000,0,50000,0,0,0,0,0.00,0.00,0.00,0.00
2016-09-21 14:40:00,2,50000,0,0.00,2,2,0,2,50000,50000,0,50000,0,0,0,0,0.00,0.00,0.00,0.00
2016-09-21 14:50:00,2,50000,0,0.00,2,2,0,2,50000,50000,0,50000,0,0,0,0,0.00,0.00,0.00,0.00
2016-09-21 15:00:00,2,50000,0,0.00,2,2,0,2,50000,50000,0,50000,0,0,0,0,0.00,0.00,0.00,0.00
2016-09-21 15:10:00,2,50000,0,0.00,2,2,0,2,50000,50000,0,50000,0,0,0,0,0.00,0.00,0.00,0.00
2016-09-21 15:20:00,2,50000,0,0.00,2,2,0,2,50000,50000,0,50000,0,0,0,0,0.00,0.00,0.00,0.00
2016-09-21 15:30:00,2,49620,23,0.03,2,2,0,2,47646,50000,724,50000,0,51,24,20,0.00,0.15,0.05,0.00
2016-09-21 15:40:00,2,47710,47,0.05,2,2,0,2,38277,50000,3876,50000,41,51,5,51,0.00,0.10,0.02,0.05
2016-09-21 15:50:00,2,49593,46,0.03,2,2,0,2,46819,50000,962,50000,41,51,5,46,0.00,0.10,0.03,0.00
2016-09-21 16:00:00,2,46789,51,0.47,2,2,0,2,39120,50000,3652,48260,51,52,0,51,0.05,1.15,0.38,0.42
2016-09-21 16:10:00,2,46094,55,0.77,2,2,0,2,35401,50000,4870,48506,51,61,5,51,0.15,1.65,0.45,0.75
2016-09-21 16:20:00,2,47211,59,0.51,2,2,0,2,36652,50000,3982,48886,51,61,4,61,0.00,1.80,0.56,0.35
2016-09-21 16:30:00,2,48694,47,0.10,2,2,0,2,43480,50000,2165,50000,41,51,5,51,0.00,0.50,0.15,0.03
2016-09-21 16:40:00,2,49842,54,0.09,2,2,0,2,48419,50000,474,50000,51,61,5,51,0.00,0.25,0.10,0.05
2016-09-21 16:50:00,2,48606,61,0.35,2,2,0,2,40636,50000,2987,50000,61,61,0,61,0.00,1.55,0.50,0.10
2016-09-21 17:00:00,2,49537,53,0.36,2,2,0,2,45369,50000,1389,50000,51,61,4,51,0.00,2.40,0.69,0.15
2016-09-21 17:10:00,2,47780,54,0.30,2,2,0,2,42259,50000,2487,48448,51,61,5,51,0.00,0.65,0.20,0.23
2016-09-21 17:20:00,2,41191,58,0.34,2,2,0,2,31578,50000,6928,38604,51,61,5,61,0.05,0.90,0.24,0.25
2016-09-21 17:30:00,2,43042,59,0.20,2,2,0,2,33815,50000,6689,44228,51,61,4,61,0.00,0.55,0.17,0.15
2016-09-21 17:40:00,2,47464,54,0.15,2,2,0,2,36462,50000,4218,50000,51,61,5,51,0.05,0.35,0.12,0.08
2016-09-21 17:50:00,2,50000,51,0.43,2,2,0,2,50000,50000,0,50000,51,51,0,51,0.10,1.10,0.32,0.30
2016-09-21 18:00:00,2,49744,51,0.35,2,2,0,2,47437,50000,769,50000,51,51,0,51,0.05,0.75,0.27,0.30
2016-09-21 18:10:00,2,45492,55,1.10,2,2,0,2,32972,50000,6145,49706,51,61,5,51,0.20,2.35,0.78,0.68
2016-09-21 18:20:00,2,42592,58,0.67,2,2,0,2,33518,49456,4776,42914,51,61,5,61,0.20,1.35,0.36,0.60
2016-09-21 18:30:00,2,42919,56,0.55,2,2,0,2,24059,50000,8372,46344,51,61,5,56,0.05,1.75,0.57,0.40
2016-09-21 18:40:00,2,49620,26,0.08,2,2,0,2,46201,50000,1140,50000,0,51,26,26,0.00,0.50,0.16,0.00
2016-09-21 18:50:00,2,50000,0,0.00,2,2,0,2,50000,50000,0,50000,0,0,0,0,0.00,0.00,0.00,0.00
2016-09-21 19:00:00,2,50000,0,0.00,2,2,0,2,50000,50000,0,50000,0,0,0,0,0.00,0.00,0.00,0.00
2016-09-21 19:10:00,2,50000,0,0.00,2,2,0,2,50000,50000,0,50000,0,0,0,0,0.00,0.00,0.00,0.00
2016-09-21 19:20:00,2,50000,0,0.00,2,2,0,2,50000,50000,0,50000,0,0,0,0,0.00,0.00,0.00,0.00
2016-09-21 19:30:00,2,50000,0,0.00,2,2,0,2,50000,50000,0,50000,0,0,0,0,0.00,0.00,0.00,0.00
2016-09-21 19:40:00,2,48050,23,0.06,2,2,0,2,36739,50000,4204,50000,0,51,24,20,0.00,0.25,0.09,0.00
2016-09-21 19:50:00,2,50000,0,0.00,2,2,0,2,50000,50000,0,50000,0,0,0,0,0.00,0.00,0.00,0.00
2016-09-21 20:00:00,2,50000,0,0.00,2,2,0,2,50000,50000,0,50000,0,0,0,0,0.00,0.00,0.00,0.00
2016-09-21 20:10:00,2,50000,0,0.00,2,2,0,2,50000,50000,0,50000,0,0,0,0,0.00,0.00,0.00,0.00
2016-09-21 20:20:00,2,50000,0,0.00,2,2,0,2,50000,50000,0,50000,0,0,0,0,0.00,0.00,0.00,0.00
2016-09-21 20:30:00,2,48952,0,0.00,2,2,0,2,42954,50000,2247,50000,0,0,0,0,0.00,0.00,0.00,0.00
2016-09-21 20:40:00,2,49523,0,0.00,2,2,0,2,45228,50000,1432,50000,0,0,0,0,0.00,0.00,0.00,0.00
2016-09-21 20:50:00,2,38577,0,0.00,2,2,0,2,28049,50000,8344,37052,0,0,0,0,0.00,0.00,0.00,0.00
2016-09-21 21:00:00,2,28276,47,0.16,2,2,0,2,25492,34617,3165,26864,40,51,5,51,0.05,0.60,0.16,0.10
2016-09-21 21:10:00,2,25429,51,0.06,2,2,0,2,20412,28523,2226,25389,51,51,0,51,0.05,0.10,0.02,0.05
2016-09-21 21:20:00,2,18305,45,0.03,2,2,0,2,13975,22735,3113,17713,41,51,5,41,0.00,0.10,0.03,0.03
2016-09-21 21:30:00,2,25108,46,0.17,2,2,0,2,15308,42906,9012,21558,0,51,15,51,0.00,0.50,0.15,0.23
2016-09-21 21:40:00,2,32272,26,0.12,2,2,0,2,17335,50000,13815,31829,0,61,27,20,0.00,0.80,0.24,0.00
2016-09-21 21:50:00,2,49940,0,0.00,2,2,0,2,49401,50000,180,50000,0,0,0,0,0.00,0.00,0.00,0.00
2016-09-21 22:00:00,2,49258,0,0.00,2,2,0,2,47517,50000,960,49862,0,0,0,0,0.00,0.00,0.00,0.00
2016-09-21 22:10:00,2,44064,0,0.00,2,2,0,2,40374,49930,2775,43444,0,0,0,0,0.00,0.00,0.00,0.00
2016-09-21 22:20:00,2,47476,0,0.00,2,2,0,2,40704,50000,3022,48476,0,0,0,0,0.00,0.00,0.00,0.00
2016-09-21 22:30:00,2,49665,0,0.00,2,2,0,2,47865,50000,647,50000,0,0,0,0,0.00,0.00,0.00,0.00
2016-09-21 22:40:00,2,46137,0,0.00,2,2,0,2,32949,50000,4830,47004,0,0,0,0,0.00,0.00,0.00,0.00
2016-09-21 22:50:00,2,32223,0,0.00,2,2,0,2,21613,49090,8268,31564,0,0,0,0,0.00,0.00,0.00,0.00
2016-09-21 23:00:00,2,44803,0,0.00,2,2,0,2,40050,48785,2963,45638,0,0,0,0,0.00,0.00,0.00,0.00
2016-09-21 23:10:00,2,46654,0,0.00,2,2,0,2,42160,50000,2948,46796,0,0,0,0,0.00,0.00,0.00,0.00
2016-09-21 23:20:00,2,48676,0,0.00,2,2,0,2,46050,50000,1518,49608,0,0,0,0,0.00,0.00,0.00,0.00
2016-09-21 23:30:00,2,45086,0,0.00,2,2,0,2,34586,49637,4832,47058,0,0,0,0,0.00,0.00,0.00,0.00
2016-09-21 23:40:00,2,45710,0,0.00,2,2,0,2,41605,49321,2594,46181,0,0,0,0,0.00,0.00,0.00,0.00
2016-09-21 23:50:00,2,48946,0,0.00,2,2,0,2,46697,50000,1333,50000,0,0,0,0,0.00,0.00,0.00,0.00
